Regional Weather Roundup
Issued by NWS

Home | Current Version | Previous Version | Text Only | Print | Product List | Glossary On
Versions: 1 2 3 4 5 6 7 8 9 10 11 12 13 14 15 16 17 18 19 20 21 22 23 24 25 26 27 28 29 30 31 32 33 34 35 36 37 38 39 40 41 42 43 44 45 46 47 48 49 50
000
ASUS42 KFFC 261510
RWRGA
WEATHER ROUNDUP FOR GEORGIA
NATIONAL WEATHER SERVICE PEACHTREE CITY GA
1000 AM EST SUN FEB 26 2017

NOTE: "FAIR" INDICATES FEW OR NO CLOUDS BELOW 12,000 FEET WITH NO
SIGNIFICANT WEATHER AND/OR OBSTRUCTIONS TO VISIBILITY.

* = USE WITH CAUTION. THE STATIONS MARKED WITH AN ASTERISK MAY NOT
REPORT WEATHER SUCH AS PRECIPITATION, FOG, OR THUNDER AND ARE NOT
QUALITY CONTROLLED BY NWS.

THE REMARK "TC" DENOTES TEMPERATURE READING IN DEGREES CELSIUS.

GAZ001>058-261600-
NORTH GEORGIA

CITY           SKY/WX    TMP DP  RH WIND       PRES   REMARKS
ATLANTA        SUNNY     45  19  35 N10       30.22R
ATHENS         SUNNY     48  19  31 NW6       30.22R
CHAMBLEE       SUNNY     44  19  36 NW7       30.22S
PEACHTREE CITY SUNNY     44  21  40 N9        30.24R
ROME           SUNNY     43  19  38 NE10      30.26R
WEST ATLANTA   SUNNY     44  18  35 NW7       30.23R
GAINESVILLE    SUNNY     43  16  33 N7        30.21R
CARTERSVILLE   SUNNY     42  19  39 N6        30.25S


CITY           SKY/WX    TMP DP  RH WIND       PRES   REMARKS
DALTON*        SUNNY     41  23  48 N10       30.26R
LAWRENCEVILLE* SUNNY     43  19  39 NW7       30.22R
MARIETTA       SUNNY     44  18  36 N8        30.22S
KENNESAW*      SUNNY     39  19  45 W7        30.28S WCI  34
CANTON*        SUNNY     43   5  21 NW3       30.22S
$$

GAZ059>098-102>109-261600-
CENTRAL GEORGIA

CITY           SKY/WX    TMP DP  RH WIND       PRES   REMARKS
AUGUSTA-BUSH   SUNNY     52  22  30 N6        30.23R
AUGUSTA-DANIEL SUNNY     50  19  29 N9        30.23R
COLUMBUS       SUNNY     46  22  38 VRB3      30.25R
MACON          SUNNY     50  22  33 N8        30.24R
ROBINS AFB     SUNNY     50  22  32 N7        30.24R


CITY           SKY/WX    TMP DP  RH WIND       PRES   REMARKS
LAGRANGE*      SUNNY     45  27  48 N6        30.25R
SYLVANIA*      MOSUNNY  N/A N/A N/A NE5       30.24S
MILLEDGEVILLE* SUNNY     46  28  49 NW3       30.24S
$$

GAZ099>101-110>166-261600-
SOUTH GEORGIA

CITY           SKY/WX    TMP DP  RH WIND       PRES   REMARKS
SAVANNAH       MOSUNNY   55  23  28 VRB5      30.24R
VALDOSTA       SUNNY     54  27  35 NE8       30.25R
ALMA           SUNNY     54  26  34 NW6       30.24R
ST SIMONS      SUNNY     57  25  29 N12       30.23R
FT STEWART     MOSUNNY   53  24  32 CALM      30.22R
ALBANY         SUNNY     52  25  35 N8        30.28R
HUNTER AFB     MOSUNNY   55  28  36 N5        30.21R
MOODY AFB      SUNNY     54  24  31 NE8       30.23R
BRUNSWICK      SUNNY     55  32  41 N5        30.24R


CITY           SKY/WX    TMP DP  RH WIND       PRES   REMARKS
BAINBRIDGE*    SUNNY     54  30  40 NE10      30.26R
MOULTRIE*        N/A     52  28  40 NE6       30.26R
VIDALIA*       MOSUNNY   54  32  43 N7        30.24R
WAYCROSS*      SUNNY     56  30  36 N8        30.25R
DOUGLAS*       SUNNY     52  23  32 N8        30.26S
$$




USA.gov is the U.S. government's official web portal to all federal, state and local government web resources and services.